SCP
0 0 -0 0 0 0 0 0 0 0 0 0 0 0 0 0 0 0 0 0 0 0 -0 -0 -0 -0 -0 -0 -0 -0 -0 -0 -0 -0 -0 -0 -0 -0 -0 0 0 0 -0 -0 -0 0 0 0 0
0 0 0 0 0 0 0 0 0 0 0 0 0 0 0 0 0 0 0 0 0 0 0 -0 -0 -0 -0 -0 -0 -0 -0 -0 -0 -0 -0 -0 -0 -0 -0 -0 -0 0 0 0 0 0 0 0 0
0 0 0 0 0 0 0 0 0 0 0 0 0 0 0 0 0 0 0 0 0 0 0 -0 -0 -0 -0 -0 -0 -0 -0 -0 -0 -0 -0 -0 -0 -0 -0 -0 -0 -0 0 0 0 0 0 0 0
0 0 0 0 0 0 0 0 0 0 0 0 0 0 0 0 0 0 0 0 0 0 0 0 -0 -0 -0 -0 -0 -0 -0 -0 -0 -0 -0 -0 -0 -0 -0 -0 -0 -0 0 0 0 0 0 0 0
0 0 0 0 0 0 0 0 0 0 0 0 0 0 0 0 0 0 0 0 0 0 0 0 0 0 -0 -0 -0 -0 -0 -0 -0 0 0 0 0 0 0 0 0 0 0 0 0 0 0 0 0
0 0 0 0 0 0 0 0 0 0 0 0 0 0 0 0 0 0 0 0 0 0 0 0 0 0 0 0 0 0 0 0 0 0 0 0 0 0 0 0 0 0 0 0 0 0 0 0 0
0 0 0 0 0 0 0 0 0 0 0 0 0 0 0 0 0 0 0 0 0 0 0 0 0 0 0 0 0 0 0 0 0 0 0 0 0 0 0 0 0 0 0 0 0 0 0 0 0
0 0 0 0 0 0 0 0 0 0 0 0 0 0 0 0 0 0 0 0 0 0 0 0 0 0 0 0 0 0 0 0 0 0 0 0 0 0 0 0 0 0 0 0 0 0 0 0 0
0 0 0 0 0 0 0 0 0 0 0 0 0 0 0 0 0 0 0 0 0 0 0 0 0 0 0 0 0 0 0 0 0 0 0 0 0 0 0 0 0 0 0 0 0 0 0 0 0
0 0 0 0 0 0 0 0 0 0 0 0 0 0 0 0 0 0 0 0 0 0 0 0 0 0 0 0 0 0 0 0 0 0 0 0 0 0 0 0 0 0 0 0 0 0 0 0 0
0 0 0 0 0 0 0 0 0 0 0 0 0 0 0 0 0 0 0 0 0 0 0 0 0 0 0 0 0 0 0 0 0 0 0 0 0 0 0 0 0 0 0 0 0 0 0 0 0
0 0 0 0 0 0 0 0 0 0 0 0 0 0 0 0 0 0 0 0 0 0 0 0 0 0 0 0 0 0 0 0 0 0 0 0 0 0 0 0 0 0 0 0 0 0 0 0 0
0 0 0 0 0 0 0 0 0 0 0 0 0 0 0 0 0 0 0 0 0 0 0 0 0 0 0 0 0 0 0 0 0 0 0 0 0 0 0 0 -0 -0 -0 -0 0 0 0 0 0
0 0 0 0 0 0 0 0 0 0 0 0 0 0 0 0 0 0 0 0 0 0 0 0 0 0 0 0 0 0 0 0 0 0 0 0 0 0 0 -0 -0 -0 -0 -0 -0 -0 0 0 0
0 0 0 0 0 0 0 0 0 0 0 0 0 0 0 0 0 0 0 0 0 0 0 0 0 0 0 0 0 0 0 0 0 0 0 0 0 0 0 0 -0 -0 -0 -0 -0 -0 -0 -0 -0
0 0 0 0 0 0 0 0 0 0 0 0 0 0 0 0 0 0 0 0 0 0 0 0 0 0 0 0 0 0 0 0 0 0 0 0 0 0 0 0 0 0 -0 -0 -0 -0 -0 -0 -0
0 0 0 0 0 0 0 0 0 0 0 0 0 0 0 0 0 0 0 0 0 0 0 0 0 0 0 0 0 0 0 0 0 0 0 0 0 0 0 0 0 0 -0 -0 -0 -0 -0 -0 -0
0 0 0 0 0 0 0 0 0 0 0 0 0 0 0 0 0 0 0 0 0 0 0 0 0 0 0 0 0 0 0 0 0 0 0 0 0 0 0 0 0 0 0 -0 -0 -0 -0 -0 -0
0 0 0 0 0 0 0 0 0 0 0 0 0 0 0 0 0 0 0 0 0 0 0 0 0 0 0 0 0 0 0 0 0 0 0 0 0 0 0 0 0 0 0 0 0 -0 -0 -0 -0
0 0 0 0 0 0 0 0 0 0 0 0 0 0 0 0 0 0 0 0 0 0 0 0 0 0 0 0 0 0 0 0 0 0 0 0 0 0 0 0 0 0 0 0 0 0 -0 -0 -0
0 0 0 0 0 0 0 0 0 0 0 0 0 0 0 0 0 0 0 0 0 0 0 0 0 0 0 0 0 0 0 0 0 0 0 0 0 0 0 0 0 0 0 0 0 0 0 0 0
0 0 0 0 0 0 0 -0 0 0 0 0 0 0 0 0 0 0 0 0 0 0 0 0 0 0 0 0 0 0 0 0 0 0 0 0 0 0 0 0 0 0 0 0 0 0 0 0 0
0 0 0 0 0 0 0 0 0 0 0 0 0 0 0 0 0 0 0 0 0 0 0 0 0 0 0 0 0 0 0 0 0 0 0 0 0 0 0 0 0 0 0 0 0 0 0 0 0
0 0 0 0 0 0 0 0 0 0 0 0 0 0 0 0 0 0 0 0 0 0 0 0 0 0 0 0 0 0 0 0 0 0 0 0 0 0 0 0 0 0 0 0 0 0 0 0 0
0 0 0 0 0 0 0 0 0 0 0 0 0 0 0 0 0 0 0 0 0 0 0 0 0 0 0 0 0 0 0 0 0 0 0 0 0 0 0 0 0 0 0 0 0 0 0 0 0
0 0 0 0 0 0 0 0 0 0 0 0 0 0 0 0 0 0 0 0 0 0 0 0 0 0 0 0 0 0 0 0 0 0 0 0 0 0 0 0 0 0 0 0 0 0 0 0 0
0 0 0 0 0 0 0 0 0 0 0 0 0 0 0 0 0 0 0 0 0 0 0 0 0 0 0 0 0 0 0 0 0 0 0 0 0 0 0 0 0 0 0 0 0 0 0 0 0
0 0 0 0 0 0 0 0 0 0 0 0 0 0 0 0 0 0 0 0 0 0 0 0 0 0 0 0 0 0 0 0 0 0 0 0 0 0 0 0 0 0 0 0 0 0 0 0 0
0 0 0 0 0 0 0 0 0 0 0 0 0 0 0 0 0 0 0 0 0 0 0 0 0 0 0 0 0 0 0 0 0 0 0 0 0 0 0 0 0 0 0 0 0 0 0 0 0
0 0 0 0 0 0 0 0 0 0 0 0 0 0 0 0 0 0 0 0 0 0 0 0 0 0 0 0 0 0 0 0 0 0 0 0 0 0 0 0 0 0 0 0 0 0 0 0 0
Wind_Speed_500mb
13 9 5 3 6 8 1 6 0 7 5 3 9 9 11 9 5 5 18 9 4 7 14 11 7 6 10 10 9 12 13 12 10 9 12 12 11 13 16 19 22 25 23 24 24 25 25 26 27
10 8 6 6 8 5 5 4 9 8 19 36 28 19 6 4 10 14 17 10 5 7 10 10 11 9 9 15 17 18 18 18 19 20 19 16 17 19 19 19 21 25 26 27 27 28 28 28 28
6 5 3 8 6 7 8 7 10 14 41 11 11 7 12 14 20 22 19 12 8 8 10 12 12 7 9 11 13 18 20 23 24 25 25 26 27 27 28 29 30 28 27 28 29 31 32 32 32
4 2 8 7 5 6 5 9 14 27 13 13 16 8 12 20 25 25 23 14 8 3 3 3 2 4 4 3 6 10 13 16 20 25 30 33 34 36 37 36 36 36 37 34 33 32 34 33 36
7 3 7 6 3 4 7 16 46 16 12 15 23 11 10 25 26 28 22 16 9 4 3 0 3 4 5 5 5 6 8 11 14 17 21 24 31 35 40 43 44 45 45 45 45 41 42 40 41
4 5 7 4 6 5 6 17 23 19 15 19 12 22 14 28 36 33 25 16 11 11 7 6 3 3 4 6 8 10 14 17 21 24 27 29 34 36 36 38 43 48 49 49 47 46 47 47 49
10 7 6 5 6 4 10 23 15 20 21 18 13 17 12 42 42 35 29 24 22 18 13 10 6 5 6 7 9 12 15 18 22 25 26 29 33 39 42 42 44 45 47 48 49 51 52 52 53
8 10 5 6 8 9 14 17 10 19 12 15 25 13 12 52 49 41 35 29 26 23 19 15 10 7 5 6 9 12 13 15 16 19 22 25 29 32 35 38 43 46 48 46 48 54 56 57 58
7 8 3 7 10 6 18 7 13 10 10 26 28 22 14 42 55 49 40 34 31 25 20 16 13 10 6 4 4 6 10 12 15 16 19 21 25 29 32 34 37 40 42 43 46 51 54 59 62
7 7 12 9 9 5 13 13 19 11 15 22 34 40 29 37 56 56 50 43 36 30 26 21 16 12 6 5 6 10 14 16 18 21 24 27 31 35 36 37 39 40 42 45 45 48 53 55 61
4 8 7 6 12 5 9 8 15 14 11 37 44 51 41 47 58 55 46 39 35 34 30 26 20 15 10 6 6 9 11 15 18 22 26 29 33 38 42 44 46 47 48 49 51 51 51 52 60
1 4 6 6 8 8 9 9 12 35 34 24 27 32 47 55 62 63 58 52 47 41 34 28 21 18 14 10 7 8 10 13 17 21 25 29 34 39 45 50 52 53 53 52 54 56 58 59 58
4 4 7 11 15 14 13 21 16 40 40 50 34 33 48 58 61 58 52 50 49 44 39 32 27 23 18 12 8 8 10 14 19 25 31 37 43 46 50 55 58 59 60 61 59 60 62 65 66
4 9 17 12 17 13 10 9 3 16 10 32 45 46 53 62 65 61 64 61 56 49 43 37 31 23 17 13 9 8 11 17 24 30 35 41 45 48 53 58 62 65 65 65 67 67 69 67 69
1 7 11 8 5 7 11 15 20 47 35 34 39 48 55 64 66 72 66 62 57 51 44 36 29 21 17 12 12 13 15 19 23 29 35 41 44 48 54 59 63 67 69 70 71 72 75 80 80
4 7 5 5 9 4 12 19 17 25 32 42 45 51 60 67 73 71 65 60 57 52 44 38 33 26 21 18 17 15 16 20 24 29 35 41 46 50 53 57 61 64 66 71 75 77 80 83 87
11 7 7 13 18 5 12 19 12 18 30 46 52 60 67 71 76 76 72 69 67 57 51 45 39 32 26 24 21 18 18 19 24 30 36 42 47 52 55 58 62 66 69 72 76 79 82 88 90
11 8 10 13 9 9 10 32 34 40 47 71 69 71 72 79 86 81 80 75 69 62 56 52 44 37 33 29 24 21 19 19 24 31 37 41 45 49 54 60 63 67 70 73 75 79 81 85 90
6 9 14 10 9 8 20 32 38 63 44 56 69 68 74 84 81 83 81 77 72 68 65 57 49 40 35 30 26 22 19 20 26 32 36 40 44 49 57 63 66 67 71 74 77 82 87 89 87
7 7 15 14 3 12 17 34 34 35 51 63 64 60 73 69 71 75 86 85 86 80 71 63 52 45 37 32 30 26 24 25 28 33 37 41 45 52 60 65 67 68 73 74 77 79 86 90 88
10 13 10 16 10 7 14 19 15 13 26 61 64 65 60 62 62 66 81 96 91 85 77 66 56 46 41 37 33 30 28 28 32 35 38 42 48 53 59 60 63 67 72 77 78 80 80 88 88
9 11 5 6 6 8 7 28 7 13 21 18 45 48 55 54 52 55 66 94 99 93 78 68 59 52 46 41 36 33 32 33 38 42 45 48 50 52 58 63 66 68 70 73 75 81 85 86 94
12 6 7 2 5 5 7 9 6 8 15 33 18 44 43 40 43 48 58 69 96 93 84 73 64 57 50 44 39 35 34 37 41 48 53 52 53 58 62 66 68 69 71 73 75 80 85 88 93
11 8 7 7 4 4 17 20 10 12 18 15 17 46 35 25 30 40 47 55 81 94 86 78 69 60 54 48 40 37 36 40 46 52 56 58 62 65 64 66 69 70 72 74 79 83 88 91 95
5 10 9 10 4 17 9 5 31 13 21 23 23 43 32 32 34 39 46 58 71 92 95 86 76 68 59 50 42 40 39 43 50 52 56 61 66 69 69 68 68 70 73 77 82 88 93 96 95
13 16 13 17 8 33 4 17 21 32 41 36 46 49 42 35 36 40 44 50 64 80 99 91 79 68 59 51 45 41 40 45 48 52 58 62 70 72 71 73 74 75 77 79 83 91 99 100 103
11 11 5 10 4 7 12 31 12 13 20 14 42 39 46 42 38 43 43 51 62 74 99 94 78 68 62 55 46 39 40 43 48 53 56 61 66 71 74 73 77 80 83 85 89 95 99 100 98
9 9 7 4 6 12 30 53 38 23 28 21 22 44 64 43 38 40 45 51 61 71 91 87 77 72 64 52 41 38 39 43 48 51 54 62 66 70 74 76 78 82 85 88 92 99 102 98 97
7 6 3 5 9 11 23 31 13 15 20 23 26 43 43 33 35 41 46 50 59 69 90 90 82 72 59 46 39 36 38 42 46 50 55 61 67 72 76 80 83 87 89 92 98 99 99 93 91
4 22 27 12 16 9 4 54 7 7 15 15 18 22 30 35 35 42 48 53 63 78 95 93 81 69 56 44 36 36 40 41 44 49 56 61 69 72 77 80 84 87 90 96 101 103 98 91 87
Wind_Direction_500mb
145 153 133 147 63 66 119 215 227 146 150 177 160 181 152 95 145 161 146 170 230 317 319 324 324 296 257 245 225 213 206 212 219 221 224 226 252 268 285 290 287 287 289 291 291 298 301 307 306
143 161 162 133 87 77 257 220 206 195 142 118 109 110 102 121 136 159 158 172 215 275 296 326 326 296 264 258 253 247 246 245 245 252 257 267 264 258 255 262 270 282 288 287 287 288 291 296 298
150 170 212 94 114 158 188 203 166 139 148 153 128 140 153 152 163 168 187 197 221 263 302 303 297 298 282 280 266 268 265 266 274 274 276 277 280 284 281 278 277 279 278 282 289 290 286 288 289
182 157 59 76 141 206 203 163 152 143 195 192 165 136 164 170 170 175 179 191 216 250 309 312 342 358 339 313 296 297 296 295 292 288 286 286 284 281 282 285 286 282 279 275 274 276 280 280 280
162 97 59 84 225 216 237 170 162 169 181 173 170 180 181 180 185 180 182 185 175 164 171 292 53 31 24 4 0 348 332 327 318 310 305 300 294 292 287 284 282 280 280 279 280 277 275 272 272
99 72 62 222 235 228 242 180 170 181 182 171 181 156 183 187 184 182 186 189 203 217 225 236 244 285 297 309 321 328 330 328 326 321 316 312 307 302 300 295 287 283 279 278 277 277 276 272 272
123 86 201 184 232 211 213 167 188 181 175 206 184 153 204 186 187 191 192 199 211 214 221 226 232 254 286 305 312 317 318 317 312 312 310 307 302 300 299 299 298 296 292 286 280 276 273 274 274
113 91 129 232 203 252 177 169 190 179 197 185 186 200 215 194 190 194 200 204 212 215 217 215 220 239 267 302 312 319 326 331 337 334 331 329 324 317 310 304 297 293 293 292 283 279 276 273 271
119 71 215 233 158 243 168 157 184 212 186 192 205 216 217 188 193 199 203 207 215 217 220 221 217 220 230 269 316 346 351 357 357 354 353 348 340 333 327 321 314 309 301 296 288 287 281 277 273
95 114 217 196 202 258 187 193 190 187 209 225 230 231 223 197 201 204 205 209 211 213 215 217 225 234 240 273 337 350 355 356 358 357 356 355 352 346 343 335 329 325 319 314 308 298 290 283 278
148 170 213 232 233 238 184 226 194 191 230 229 231 233 218 205 204 205 207 213 216 216 217 221 222 225 234 260 310 334 347 352 353 353 351 349 347 345 342 339 336 333 329 326 320 312 307 301 291
146 210 219 281 222 189 195 195 219 218 243 257 258 254 224 208 206 205 208 212 215 216 218 222 225 235 244 257 287 327 340 339 342 343 343 342 342 342 341 339 337 336 333 330 328 323 318 312 306
175 235 240 263 246 242 246 240 240 255 260 254 253 238 224 215 212 211 215 217 215 217 221 225 230 233 237 245 269 298 319 332 340 342 344 342 342 342 340 337 335 334 334 332 331 328 323 318 313
184 275 274 274 248 249 236 271 262 248 251 247 243 240 225 218 215 211 214 216 218 221 223 224 227 227 232 244 260 290 322 339 342 340 338 337 338 338 337 335 332 329 330 331 330 330 326 322 317
175 319 321 244 227 247 213 284 233 255 261 256 241 237 228 222 217 222 223 223 224 225 225 227 230 234 245 264 284 306 321 331 332 333 333 332 334 335 334 331 328 326 326 327 326 326 324 322 320
97 60 19 232 170 213 158 266 266 253 247 251 244 236 227 224 224 225 224 225 225 225 227 230 233 236 246 259 271 287 305 320 325 330 330 331 331 330 328 325 321 321 321 323 325 325 323 321 320
360 253 230 300 206 151 179 270 244 248 245 254 250 241 231 227 226 226 224 225 227 227 229 231 233 236 241 246 256 273 290 308 323 328 329 328 327 325 324 323 321 322 322 324 324 323 322 320 317
230 243 247 239 217 211 223 256 273 259 262 264 260 251 239 236 234 231 227 225 225 224 226 229 232 235 239 245 253 265 284 308 321 326 325 324 320 320 320 319 320 321 321 320 320 318 317 316 315
170 204 236 249 227 213 242 253 258 272 254 257 258 249 252 247 248 238 231 227 223 224 225 227 230 234 240 245 250 260 280 301 313 322 320 318 318 320 320 316 315 315 316 317 319 319 318 317 318
171 214 259 284 256 195 271 261 261 253 258 260 259 251 260 259 249 241 229 225 225 226 224 224 226 232 238 243 250 261 276 295 312 317 316 313 318 319 315 313 314 316 316 316 316 316 314 312 315
205 194 228 236 337 259 304 264 233 282 247 263 259 258 261 256 251 242 229 224 222 223 222 224 227 231 237 243 251 262 277 293 305 309 312 315 316 313 309 311 313 315 315 315 315 313 312 310 308
233 211 216 290 21 255 11 295 235 237 266 255 265 250 254 251 248 245 235 225 223 223 220 224 226 231 236 243 252 266 281 295 306 309 314 314 313 313 313 314 314 313 311 310 311 310 309 307 304
224 120 139 113 215 13 247 268 222 25 269 264 265 263 252 252 254 252 244 236 229 224 221 222 226 230 236 243 254 267 281 296 305 310 310 312 315 316 314 314 312 310 308 308 308 305 301 302 301
136 98 71 66 101 255 224 201 159 184 212 259 263 259 259 248 262 258 251 240 231 223 221 222 224 230 237 244 256 270 284 296 305 307 312 316 318 315 315 312 311 309 307 308 305 303 303 301 299
107 69 324 316 342 250 133 232 257 231 229 219 229 244 247 266 259 250 241 234 230 221 220 220 222 228 234 242 257 271 285 297 303 310 314 315 316 315 316 314 311 310 310 309 308 305 303 302 296
174 167 167 245 244 288 66 244 275 218 240 231 240 261 262 247 252 249 242 241 235 224 219 220 222 227 234 242 255 270 287 296 305 311 313 317 317 319 319 316 315 314 312 309 307 305 304 303 300
182 188 169 96 131 306 244 265 280 214 254 251 247 240 245 251 250 253 247 243 237 228 221 221 222 227 233 243 255 273 285 297 305 309 314 316 316 315 317 317 315 314 312 311 308 306 306 302 298
178 154 82 2 254 254 269 274 272 219 236 236 245 232 246 245 247 247 242 244 239 230 220 221 224 229 233 242 256 271 287 297 303 310 314 312 315 317 317 317 314 312 312 311 309 307 305 301 295
138 202 192 188 162 203 269 273 176 186 199 212 239 249 238 226 253 242 245 247 239 227 217 220 223 225 231 243 257 273 286 295 304 310 313 313 316 316 316 314 314 314 314 312 309 306 305 298 294
175 198 184 196 235 243 149 269 356 350 214 207 238 242 214 258 252 247 259 252 233 220 219 220 220 223 230 242 258 276 287 297 304 310 313 316 315 313 312 313 313 313 314 312 310 308 305 298 293
Wind_Speed_850mb
13 9 5 3 6 8 1 6 0 7 5 3 9 9 11 9 5 5 18 9 4 7 14 11 7 6 10 10 9 12 13 12 10 9 12 12 11 13 16 19 22 25 23 24 24 25 25 26 27
10 8 6 6 8 5 5 4 9 8 19 36 28 19 6 4 10 14 17 10 5 7 10 10 11 9 9 15 17 18 18 18 19 20 19 16 17 19 19 19 21 25 26 27 27 28 28 28 28
6 5 3 8 6 7 8 7 10 14 41 11 11 7 12 14 20 22 19 12 8 8 10 12 12 7 9 11 13 18 20 23 24 25 25 26 27 27 28 29 30 28 27 28 29 31 32 32 32
4 2 8 7 5 6 5 9 14 27 13 13 16 8 12 20 25 25 23 14 8 3 3 3 2 4 4 3 6 10 13 16 20 25 30 33 34 36 37 36 36 36 37 34 33 32 34 33 36
7 3 7 6 3 4 7 16 46 16 12 15 23 11 10 25 26 28 22 16 9 4 3 0 3 4 5 5 5 6 8 11 14 17 21 24 31 35 40 43 44 45 45 45 45 41 42 40 41
4 5 7 4 6 5 6 17 23 19 15 19 12 22 14 28 36 33 25 16 11 11 7 6 3 3 4 6 8 10 14 17 21 24 27 29 34 36 36 38 43 48 49 49 47 46 47 47 49
10 7 6 5 6 4 10 23 15 20 21 18 13 17 12 42 42 35 29 24 22 18 13 10 6 5 6 7 9 12 15 18 22 25 26 29 33 39 42 42 44 45 47 48 49 51 52 52 53
8 10 5 6 8 9 14 17 10 19 12 15 25 13 12 52 49 41 35 29 26 23 19 15 10 7 5 6 9 12 13 15 16 19 22 25 29 32 35 38 43 46 48 46 48 54 56 57 58
7 8 3 7 10 6 18 7 13 10 10 26 28 22 14 42 55 49 40 34 31 25 20 16 13 10 6 4 4 6 10 12 15 16 19 21 25 29 32 34 37 40 42 43 46 51 54 59 62
7 7 12 9 9 5 13 13 19 11 15 22 34 40 29 37 56 56 50 43 36 30 26 21 16 12 6 5 6 10 14 16 18 21 24 27 31 35 36 37 39 40 42 45 45 48 53 55 61
4 8 7 6 12 5 9 8 15 14 11 37 44 51 41 47 58 55 46 39 35 34 30 26 20 15 10 6 6 9 11 15 18 22 26 29 33 38 42 44 46 47 48 49 51 51 51 52 60
1 4 6 6 8 8 9 9 12 35 34 24 27 32 47 55 62 63 58 52 47 41 34 28 21 18 14 10 7 8 10 13 17 21 25 29 34 39 45 50 52 53 53 52 54 56 58 59 58
4 4 7 11 15 14 13 21 16 40 40 50 34 33 48 58 61 58 52 50 49 44 39 32 27 23 18 12 8 8 10 14 19 25 31 37 43 46 50 55 58 59 60 61 59 60 62 65 66
4 9 17 12 17 13 10 9 3 16 10 32 45 46 53 62 65 61 64 61 56 49 43 37 31 23 17 13 9 8 11 17 24 30 35 41 45 48 53 58 62 65 65 65 67 67 69 67 69
1 7 11 8 5 7 11 15 20 47 35 34 39 48 55 64 66 72 66 62 57 51 44 36 29 21 17 12 12 13 15 19 23 29 35 41 44 48 54 59 63 67 69 70 71 72 75 80 80
4 7 5 5 9 4 12 19 17 25 32 42 45 51 60 67 73 71 65 60 57 52 44 38 33 26 21 18 17 15 16 20 24 29 35 41 46 50 53 57 61 64 66 71 75 77 80 83 87
11 7 7 13 18 5 12 19 12 18 30 46 52 60 67 71 76 76 72 69 67 57 51 45 39 32 26 24 21 18 18 19 24 30 36 42 47 52 55 58 62 66 69 72 76 79 82 88 90
11 8 10 13 9 9 10 32 34 40 47 71 69 71 72 79 86 81 80 75 69 62 56 52 44 37 33 29 24 21 19 19 24 31 37 41 45 49 54 60 63 67 70 73 75 79 81 85 90
6 9 14 10 9 8 20 32 38 63 44 56 69 68 74 84 81 83 81 77 72 68 65 57 49 40 35 30 26 22 19 20 26 32 36 40 44 49 57 63 66 67 71 74 77 82 87 89 87
7 7 15 14 3 12 17 34 34 35 51 63 64 60 73 69 71 75 86 85 86 80 71 63 52 45 37 32 30 26 24 25 28 33 37 41 45 52 60 65 67 68 73 74 77 79 86 90 88
10 13 10 16 10 7 14 19 15 13 26 61 64 65 60 62 62 66 81 96 91 85 77 66 56 46 41 37 33 30 28 28 32 35 38 42 48 53 59 60 63 67 72 77 78 80 80 88 88
9 11 5 6 6 8 7 28 7 13 21 18 45 48 55 54 52 55 66 94 99 93 78 68 59 52 46 41 36 33 32 33 38 42 45 48 50 52 58 63 66 68 70 73 75 81 85 86 94
12 6 7 2 5 5 7 9 6 8 15 33 18 44 43 40 43 48 58 69 96 93 84 73 64 57 50 44 39 35 34 37 41 48 53 52 53 58 62 66 68 69 71 73 75 80 85 88 93
11 8 7 7 4 4 17 20 10 12 18 15 17 46 35 25 30 40 47 55 81 94 86 78 69 60 54 48 40 37 36 40 46 52 56 58 62 65 64 66 69 70 72 74 79 83 88 91 95
5 10 9 10 4 17 9 5 31 13 21 23 23 43 32 32 34 39 46 58 71 92 95 86 76 68 59 50 42 40 39 43 50 52 56 61 66 69 69 68 68 70 73 77 82 88 93 96 95
13 16 13 17 8 33 4 17 21 32 41 36 46 49 42 35 36 40 44 50 64 80 99 91 79 68 59 51 45 41 40 45 48 52 58 62 70 72 71 73 74 75 77 79 83 91 99 100 103
11 11 5 10 4 7 12 31 12 13 20 14 42 39 46 42 38 43 43 51 62 74 99 94 78 68 62 55 46 39 40 43 48 53 56 61 66 71 74 73 77 80 83 85 89 95 99 100 98
9 9 7 4 6 12 30 53 38 23 28 21 22 44 64 43 38 40 45 51 61 71 91 87 77 72 64 52 41 38 39 43 48 51 54 62 66 70 74 76 78 82 85 88 92 99 102 98 97
7 6 3 5 9 11 23 31 13 15 20 23 26 43 43 33 35 41 46 50 59 69 90 90 82 72 59 46 39 36 38 42 46 50 55 61 67 72 76 80 83 87 89 92 98 99 99 93 91
4 22 27 12 16 9 4 54 7 7 15 15 18 22 30 35 35 42 48 53 63 78 95 93 81 69 56 44 36 36 40 41 44 49 56 61 69 72 77 80 84 87 90 96 101 103 98 91 87
Wind_Direction_850mb
145 153 133 147 63 66 119 215 227 146 150 177 160 181 152 95 145 161 146 170 230 317 319 324 324 296 257 245 225 213 206 212 219 221 224 226 252 268 285 290 287 287 289 291 291 298 301 307 306
143 161 162 133 87 77 257 220 206 195 142 118 109 110 102 121 136 159 158 172 215 275 296 326 326 296 264 258 253 247 246 245 245 252 257 267 264 258 255 262 270 282 288 287 287 288 291 296 298
150 170 212 94 114 158 188 203 166 139 148 153 128 140 153 152 163 168 187 197 221 263 302 303 297 298 282 280 266 268 265 266 274 274 276 277 280 284 281 278 277 279 278 282 289 290 286 288 289
182 157 59 76 141 206 203 163 152 143 195 192 165 136 164 170 170 175 179 191 216 250 309 312 342 358 339 313 296 297 296 295 292 288 286 286 284 281 282 285 286 282 279 275 274 276 280 280 280
162 97 59 84 225 216 237 170 162 169 181 173 170 180 181 180 185 180 182 185 175 164 171 292 53 31 24 4 0 348 332 327 318 310 305 300 294 292 287 284 282 280 280 279 280 277 275 272 272
99 72 62 222 235 228 242 180 170 181 182 171 181 156 183 187 184 182 186 189 203 217 225 236 244 285 297 309 321 328 330 328 326 321 316 312 307 302 300 295 287 283 279 278 277 277 276 272 272
123 86 201 184 232 211 213 167 188 181 175 206 184 153 204 186 187 191 192 199 211 214 221 226 232 254 286 305 312 317 318 317 312 312 310 307 302 300 299 299 298 296 292 286 280 276 273 274 274
113 91 129 232 203 252 177 169 190 179 197 185 186 200 215 194 190 194 200 204 212 215 217 215 220 239 267 302 312 319 326 331 337 334 331 329 324 317 310 304 297 293 293 292 283 279 276 273 271
119 71 215 233 158 243 168 157 184 212 186 192 205 216 217 188 193 199 203 207 215 217 220 221 217 220 230 269 316 346 351 357 357 354 353 348 340 333 327 321 314 309 301 296 288 287 281 277 273
95 114 217 196 202 258 187 193 190 187 209 225 230 231 223 197 201 204 205 209 211 213 215 217 225 234 240 273 337 350 355 356 358 357 356 355 352 346 343 335 329 325 319 314 308 298 290 283 278
148 170 213 232 233 238 184 226 194 191 230 229 231 233 218 205 204 205 207 213 216 216 217 221 222 225 234 260 310 334 347 352 353 353 351 349 347 345 342 339 336 333 329 326 320 312 307 301 291
146 210 219 281 222 189 195 195 219 218 243 257 258 254 224 208 206 205 208 212 215 216 218 222 225 235 244 257 287 327 340 339 342 343 343 342 342 342 341 339 337 336 333 330 328 323 318 312 306
175 235 240 263 246 242 246 240 240 255 260 254 253 238 224 215 212 211 215 217 215 217 221 225 230 233 237 245 269 298 319 332 340 342 344 342 342 342 340 337 335 334 334 332 331 328 323 318 313
184 275 274 274 248 249 236 271 262 248 251 247 243 240 225 218 215 211 214 216 218 221 223 224 227 227 232 244 260 290 322 339 342 340 338 337 338 338 337 335 332 329 330 331 330 330 326 322 317
175 319 321 244 227 247 213 284 233 255 261 256 241 237 228 222 217 222 223 223 224 225 225 227 230 234 245 264 284 306 321 331 332 333 333 332 334 335 334 331 328 326 326 327 326 326 324 322 320
97 60 19 232 170 213 158 266 266 253 247 251 244 236 227 224 224 225 224 225 225 225 227 230 233 236 246 259 271 287 305 320 325 330 330 331 331 330 328 325 321 321 321 323 325 325 323 321 320
360 253 230 300 206 151 179 270 244 248 245 254 250 241 231 227 226 226 224 225 227 227 229 231 233 236 241 246 256 273 290 308 323 328 329 328 327 325 324 323 321 322 322 324 324 323 322 320 317
230 243 247 239 217 211 223 256 273 259 262 264 260 251 239 236 234 231 227 225 225 224 226 229 232 235 239 245 253 265 284 308 321 326 325 324 320 320 320 319 320 321 321 320 320 318 317 316 315
170 204 236 249 227 213 242 253 258 272 254 257 258 249 252 247 248 238 231 227 223 224 225 227 230 234 240 245 250 260 280 301 313 322 320 318 318 320 320 316 315 315 316 317 319 319 318 317 318
171 214 259 284 256 195 271 261 261 253 258 260 259 251 260 259 249 241 229 225 225 226 224 224 226 232 238 243 250 261 276 295 312 317 316 313 318 319 315 313 314 316 316 316 316 316 314 312 315
205 194 228 236 337 259 304 264 233 282 247 263 259 258 261 256 251 242 229 224 222 223 222 224 227 231 237 243 251 262 277 293 305 309 312 315 316 313 309 311 313 315 315 315 315 313 312 310 308
233 211 216 290 21 255 11 295 235 237 266 255 265 250 254 251 248 245 235 225 223 223 220 224 226 231 236 243 252 266 281 295 306 309 314 314 313 313 313 314 314 313 311 310 311 310 309 307 304
224 120 139 113 215 13 247 268 222 25 269 264 265 263 252 252 254 252 244 236 229 224 221 222 226 230 236 243 254 267 281 296 305 310 310 312 315 316 314 314 312 310 308 308 308 305 301 302 301
136 98 71 66 101 255 224 201 159 184 212 259 263 259 259 248 262 258 251 240 231 223 221 222 224 230 237 244 256 270 284 296 305 307 312 316 318 315 315 312 311 309 307 308 305 303 303 301 299
107 69 324 316 342 250 133 232 257 231 229 219 229 244 247 266 259 250 241 234 230 221 220 220 222 228 234 242 257 271 285 297 303 310 314 315 316 315 316 314 311 310 310 309 308 305 303 302 296
174 167 167 245 244 288 66 244 275 218 240 231 240 261 262 247 252 249 242 241 235 224 219 220 222 227 234 242 255 270 287 296 305 311 313 317 317 319 319 316 315 314 312 309 307 305 304 303 300
182 188 169 96 131 306 244 265 280 214 254 251 247 240 245 251 250 253 247 243 237 228 221 221 222 227 233 243 255 273 285 297 305 309 314 316 316 315 317 317 315 314 312 311 308 306 306 302 298
178 154 82 2 254 254 269 274 272 219 236 236 245 232 246 245 247 247 242 244 239 230 220 221 224 229 233 242 256 271 287 297 303 310 314 312 315 317 317 317 314 312 312 311 309 307 305 301 295
138 202 192 188 162 203 269 273 176 186 199 212 239 249 238 226 253 242 245 247 239 227 217 220 223 225 231 243 257 273 286 295 304 310 313 313 316 316 316 314 314 314 314 312 309 306 305 298 294
175 198 184 196 235 243 149 269 356 350 214 207 238 242 214 258 252 247 259 252 233 220 219 220 220 223 230 242 258 276 287 297 304 310 313 316 315 313 312 313 313 313 314 312 310 308 305 298 293